Regional Weather Roundup
Issued by NWS

Home | Current Version | Previous Version | Graphics & Text | Print | Product List | Glossary On
Versions: 1 2 3 4 5 6 7 8 9 10 11 12 13 14 15 16 17 18 19 20 21 22 23 24 25 26 27 28 29 30 31 32 33 34 35 36 37 38 39 40 41 42 43 44 45 46 47 48 49 50
061
ASUS43 KIND 260709
RWRIN

WEATHER ROUNDUP FOR INDIANA
NATIONAL WEATHER SERVICE INDIANAPOLIS IN
300 AM EDT WED APR 26 2017

NOTE: "FAIR" INDICATES FEW OR NO CLOUDS BELOW 12,000 FEET WITH NO
SIGNIFICANT WEATHER AND/OR OBSTRUCTIONS TO VISIBILITY.

* - STATION DOES NOT REPORT WEATHER SUCH AS PRECIPITATION OR FOG.

+ - STATION NOT QUALITY CONTROLLED BY THE NATIONAL WEATHER SERVICE.
    USE DATA WITH CAUTION...ESPECIALLY DEWPOINT AND RELATIVE
    HUMIDITY OBSERVATIONS.

INZ001>003-010>013-019-020-260800-
NORTHWEST INDIANA

CITY           SKY/WX    TMP DP  RH WIND       PRES   REMARKS
GARY /AIRPORT/ MOCLDY    67  53  60 SE8       29.55F
KNOX *+        CLOUDY    64  34  32 S13       29.59F
LA PORTE +     CLOUDY    64  55  72 S8        29.59F
MONTICELLO +   PTCLDY    64  55  71 SE5       29.61F
VALPARAISO     PTCLDY    66  56  70 SE10      29.58F

$$

LMZ046-743>745-260800-
SOUTHERN LAKE MICHIGAN

STATION/POSITION TIME  TEMP    WIND        PRES    WAVE
                       AIR SEA DIR/SP/G            HT
                 (UTC) (F)     (DEG/KT/KT) (MB)    (FT)
BURNS HARBOR     0640   68     160/  8/ 18 1001.7F
MICHIGAN CITY    0640   67     150/  9/ 11   N/A

$$

INZ004-005-014>016-021>024-260800-
NORTH CENTRAL INDIANA

CITY           SKY/WX    TMP DP  RH WIND       PRES   REMARKS
GOSHEN         PTCLDY    63  53  70 S9        29.63F
LOGANSPORT +   PTCLDY    61  54  77 SE9       29.63F
PERU/GRISSOM   PTCLDY    60  58  91 S9        29.63S
ROCHESTER +    PTCLDY    64  55  72 S8        29.63F
SOUTH BEND     CLOUDY    65  55  70 SE14      29.61F
WARSAW +       CLEAR     63  54  72 SE5       29.64F

$$

INZ006>009-017-018-025>027-260800-
NORTHEAST INDIANA

CITY           SKY/WX    TMP DP  RH WIND       PRES   REMARKS
AUBURN +       CLEAR     59  52  77 CALM      29.67S
FORT WAYNE     PTCLDY    60  53  77 SE8       29.67S
HUNTINGTON +   CLEAR     60  55  83 SE5       29.67S

$$

INZ028-029-035-036-043>045-051>053-260800-
WEST CENTRAL INDIANA

CITY           SKY/WX    TMP DP  RH WIND       PRES   REMARKS
LAFAYETTE      CLOUDY    63  56  78 SE6       29.60F
TERRE HAUTE    MOCLDY    64  55  72 S9        29.61F

$$

INZ030>032-037>040-046>048-054>057-064-065-260800-
CENTRAL INDIANA

CITY           SKY/WX    TMP DP  RH WIND       PRES   REMARKS
CP ATTERBURY + PTCLDY    61  54  77 SE3       29.68S
FISHERS *+     CLOUDY    61  57  88 SE7       29.66
FRANKFORT +    CLOUDY    64  57  76 S7        29.65F
GREENWOOD *+   CLOUDY    63  55  75 SE7       29.67F
INDIANAPOLIS   CLOUDY    61  55  81 SE10      29.64F
-EAGLE CREEK   CLOUDY    63  55  75 SE7       29.64F
KOKOMO +       CLOUDY    61  55  81 S10       29.66F
MARION +       CLEAR     61  54  77 S8        29.67F
MT COMFORT *+  PTCLDY    61  55  82 S6        29.67F
SHELBYVILLE    PTCLDY    61  54  77 SE7       29.67S
ZIONSVILLE +   PTCLDY    62  55  78 SE8       29.66F

$$

INZ033-034-041-042-049-050-058-059-260800-
EAST CENTRAL INDIANA

CITY           SKY/WX    TMP DP  RH WIND       PRES   REMARKS
MUNCIE         CLEAR     63  55  75 S6        29.68R

$$

INZ060-061-067>069-081>083-085>088-260800-
SOUTHWEST INDIANA

CITY           SKY/WX    TMP DP  RH WIND       PRES   REMARKS
EVANSVILLE     CLOUDY    63  56  78 SE5       29.64S
HUNTINGBURG *+ CLEAR     61  56  83 SE6       29.65F
WASHINGTON +   CLEAR     62  54  74 MISG      29.63F

$$

INZ062-063-066-070>080-084-089>092-260800-
SOUTH CENTRAL AND SOUTHEAST INDIANA

CITY           SKY/WX    TMP DP  RH WIND       PRES   REMARKS
BLOOMINGTON    CLEAR     61  54  77 S6        29.65F
MADISON *+     CLEAR     61  54  77 CALM      29.71S
NORTH VERNON + CLEAR     59  54  82 SE3       29.69
SEYMOUR +      CLEAR     61  54  77 SE6       29.68

$$





USA.gov is the U.S. government's official web portal to all federal, state and local government web resources and services.